Back to catalog

STARLINK-6366

AliveCommunicationsVLEO
NORAD 57380·PAYLOAD·🇺🇸 United States

Launched Jul 16, 2023 from Cape Canaveral Space Force Station

Loading…

Next Passes (next 24 hours)

TLE

FreshSource: CelesTrak SupGP

Epoch: Sep 14, 2026, 22:38 UTC

1 57380C 23099BE  26257.94354167  .00004476  00000+0  16213-3 0  2570
2 57380  43.0030 223.6983 0001392 262.4421 337.7990 15.27572031    16

Track STARLINK-6366 in real time with AllMySat

Download on the App Store